| time (UTC) | temp F | wind direction | speed MPH | gust MPH | rain 1hr in | rain 24hr in | rain mn in | humidity % | barometer mb |
| 20260906212341 | 83 | 259 | 3.0 | 10.0 | 0.00 | 0.00 | 0.00 | 39 | 1020.2 |
| 20260906211841 | 83 | 226 | 2.0 | 10.0 | 0.00 | 0.00 | 0.00 | 38 | 1020.3 |
| 20260906211342 | 83 | 252 | 2.0 | 9.0 | 0.00 | 0.00 | 0.00 | 39 | 1020.3 |
| 20260906211113 | 83 | 209 | 3.0 | 9.0 | 0.00 | 0.00 | 0.00 | 38 | 1020.3 |
| 20260906210342 | 83 | 213 | 4.0 | 9.0 | 0.00 | 0.00 | 0.00 | 37 | 1020.3 |
| 20260906210115 | 83 | 279 | 3.0 | 9.0 | 0.00 | 0.00 | 0.00 | 34 | 1020.3 |
| 20260906205337 | 84 | 283 | 2.0 | 9.0 | 0.00 | 0.00 | 0.00 | 36 | 1020.2 |
| 20260906204839 | 83 | 168 | 2.0 | 9.0 | 0.00 | 0.00 | 0.00 | 36 | 1020.3 |
| 20260906204338 | 83 | 237 | 3.0 | 9.0 | 0.00 | 0.00 | 0.00 | 35 | 1020.2 |
| 20260906204109 | 83 | 296 | 4.0 | 9.0 | 0.00 | 0.00 | 0.00 | 36 | 1020.3 |
| 20260906203339 | 83 | 286 | 3.0 | 9.0 | 0.00 | 0.00 | 0.00 | 35 | 1020.4 |
| 20260906203112 | 83 | 253 | 3.0 | 8.0 | 0.00 | 0.00 | 0.00 | 34 | 1020.4 |
| 20260906202606 | 83 | 261 | 2.0 | 8.0 | 0.00 | 0.00 | 0.00 | 35 | 1020.4 |
| 20260906201835 | 84 | 250 | 2.0 | 8.0 | 0.00 | 0.00 | 0.00 | 35 | 1020.4 |
| 20260906201334 | 85 | 282 | 1.0 | 9.0 | 0.00 | 0.00 | 0.00 | 35 | 1020.5 |
| 20260906200833 | 84 | 167 | 1.0 | 9.0 | 0.00 | 0.00 | 0.00 | 36 | 1020.5 |
| 20260906195835 | 85 | 199 | 1.0 | 9.0 | 0.00 | 0.00 | 0.00 | 35 | 1020.5 |
| 20260906195330 | 84 | 224 | 2.0 | 8.0 | 0.00 | 0.00 | 0.00 | 35 | 1020.4 |
| 20260906194829 | 84 | 110 | 2.0 | 8.0 | 0.00 | 0.00 | 0.00 | 37 | 1020.6 |
| 20260906194330 | 84 | 183 | 2.0 | 8.0 | 0.00 | 0.00 | 0.00 | 37 | 1020.5 |
| 20260906193830 | 83 | 96 | 2.0 | 7.0 | 0.00 | 0.00 | 0.00 | 35 | 1020.6 |
| 20260906193330 | 84 | 261 | 1.0 | 7.0 | 0.00 | 0.00 | 0.00 | 36 | 1020.7 |
| 20260906192831 | 84 | 167 | 1.0 | 6.0 | 0.00 | 0.00 | 0.00 | 36 | 1020.7 |
| 20260906192326 | 83 | 235 | 1.0 | 5.0 | 0.00 | 0.00 | 0.00 | 35 | 1020.9 |
| 20260906191826 | 83 | 165 | 2.0 | 8.0 | 0.00 | 0.00 | 0.00 | 36 | 1020.9 |
| 20260906191325 | 83 | 143 | 2.0 | 8.0 | 0.00 | 0.00 | 0.00 | 36 | 1020.9 |
| 20260906190826 | 83 | 131 | 2.0 | 9.0 | 0.00 | 0.00 | 0.00 | 37 | 1021.0 |
| 20260906190326 | 83 | 231 | 2.0 | 9.0 | 0.00 | 0.00 | 0.00 | 38 | 1021.1 |
| 20260906185828 | 82 | 231 | 3.0 | 8.0 | 0.00 | 0.00 | 0.00 | 37 | 1021.1 |
| 20260906185321 | 82 | 237 | 3.0 | 8.0 | 0.00 | 0.00 | 0.00 | 39 | 1021.1 |
| 20260906184822 | 82 | 247 | 2.0 | 8.0 | 0.00 | 0.00 | 0.00 | 40 | 1021.1 |
| 20260906183821 | 82 | 248 | 2.0 | 8.0 | 0.00 | 0.00 | 0.00 | 41 | 1021.3 |
| 20260906183321 | 81 | 289 | 2.0 | 7.0 | 0.00 | 0.00 | 0.00 | 43 | 1021.5 |
| 20260906182823 | 81 | 254 | 3.0 | 8.0 | 0.00 | 0.00 | 0.00 | 41 | 1021.5 |
| 20260906182317 | 81 | 252 | 3.0 | 8.0 | 0.00 | 0.00 | 0.00 | 43 | 1021.6 |
| 20260906181817 | 81 | 266 | 2.0 | 10.0 | 0.00 | 0.00 | 0.00 | 43 | 1021.6 |
| 20260906181318 | 80 | 332 | 3.0 | 10.0 | 0.00 | 0.00 | 0.00 | 43 | 1021.6 |
| 20260906180818 | 81 | 316 | 4.0 | 10.0 | 0.00 | 0.00 | 0.00 | 44 | 1021.6 |
| 20260906180317 | 81 | 264 | 3.0 | 10.0 | 0.00 | 0.00 | 0.00 | 42 | 1021.6 |
| 20260906175819 | 82 | 247 | 2.0 | 7.0 | 0.00 | 0.00 | 0.00 | 42 | 1021.7 |
| 20260906175314 | 82 | 121 | 2.0 | 6.0 | 0.00 | 0.00 | 0.00 | 41 | 1021.7 |
| 20260906174813 | 82 | 235 | 2.0 | 8.0 | 0.00 | 0.00 | 0.00 | 40 | 1021.8 |
| 20260906174316 | 82 | 155 | 2.0 | 8.0 | 0.00 | 0.00 | 0.00 | 40 | 1021.8 |
| 20260906173815 | 82 | 255 | 2.0 | 7.0 | 0.00 | 0.00 | 0.00 | 38 | 1021.8 |
| 20260906173315 | 81 | 244 | 1.0 | 6.0 | 0.00 | 0.00 | 0.00 | 41 | 1021.8 |
| 20260906172815 | 81 | 252 | 1.0 | 6.0 | 0.00 | 0.00 | 0.00 | 40 | 1021.9 |
| 20260906172540 | 81 | 130 | 1.0 | 6.0 | 0.00 | 0.00 | 0.00 | 42 | 1021.9 |
| 20260906171810 | 81 | 244 | 2.0 | 6.0 | 0.00 | 0.00 | 0.00 | 40 | 1021.9 |
| 20260906171311 | 80 | 338 | 1.0 | 5.0 | 0.00 | 0.00 | 0.00 | 42 | 1021.9 |
| 20260906170810 | 80 | 279 | 1.0 | 6.0 | 0.00 | 0.00 | 0.00 | 44 | 1021.9 |
| 20260906170309 | 80 | 254 | 2.0 | 6.0 | 0.00 | 0.00 | 0.00 | 42 | 1022.0 |
| 20260906165811 | 80 | 268 | 2.0 | 6.0 | 0.00 | 0.00 | 0.00 | 43 | 1022.0 |
| 20260906165306 | 80 | 98 | 1.0 | 3.0 | 0.00 | 0.00 | 0.00 | 42 | 1022.0 |
| 20260906164806 | 79 | 98 | 2.0 | 5.0 | 0.00 | 0.00 | 0.00 | 42 | 1022.0 |
| 20260906164307 | 79 | 91 | 2.0 | 5.0 | 0.00 | 0.00 | 0.00 | 45 | 1022.0 |
| 20260906163806 | 79 | 79 | 1.0 | 5.0 | 0.00 | 0.00 | 0.00 | 45 | 1021.9 |
| 20260906163307 | 78 | 42 | 2.0 | 5.0 | 0.00 | 0.00 | 0.00 | 44 | 1022.0 |
| 20260906162807 | 78 | 86 | 1.0 | 5.0 | 0.00 | 0.00 | 0.00 | 47 | 1022.0 |
| 20260906162301 | 78 | 42 | 1.0 | 5.0 | 0.00 | 0.00 | 0.00 | 46 | 1022.0 |
| 20260906161801 | 78 | 325 | 1.0 | 5.0 | 0.00 | 0.00 | 0.00 | 47 | 1021.9 |
| 20260906161304 | 77 | 267 | 1.0 | 6.0 | 0.00 | 0.00 | 0.00 | 47 | 1021.8 |
| 20260906160803 | 76 | 279 | 1.0 | 6.0 | 0.00 | 0.00 | 0.00 | 48 | 1021.9 |
| 20260906160300 | 77 | 254 | 0.0 | 0.0 | 0.00 | 0.00 | 0.00 | 48 | 1021.9 |
| 20260906155759 | 77 | 344 | 0.0 | 0.0 | 0.00 | 0.00 | 0.00 | 49 | 1021.9 |
| 20260906155259 | 76 | 251 | 0.0 | 0.0 | 0.00 | 0.00 | 0.00 | 49 | 1021.9 |
| 20260906154753 | 76 | 69 | 0.0 | 0.0 | 0.00 | 0.00 | 0.00 | 51 | 1022.0 |
| 20260906154253 | 75 | 68 | 0.0 | 0.0 | 0.00 | 0.00 | 0.00 | 49 | 1021.9 |
| 20260906153753 | 75 | 25 | 0.0 | 0.0 | 0.00 | 0.00 | 0.00 | 49 | 1021.9 |
| 20260906153253 | 75 | 107 | 0.0 | 0.0 | 0.00 | 0.00 | 0.00 | 54 | 1021.9 |
| 20260906152753 | 75 | 107 | 0.0 | 0.0 | 0.00 | 0.00 | 0.00 | 56 | 1021.9 |
| 20260906152520 | 74 | 137 | 0.0 | 0.0 | 0.00 | 0.00 | 0.00 | 58 | 1022.0 |
| 20260906151749 | 73 | 141 | 0.0 | 0.0 | 0.00 | 0.00 | 0.00 | 60 | 1022.0 |
| 20260906151249 | 72 | 141 | 0.0 | 4.0 | 0.00 | 0.00 | 0.00 | 62 | 1022.0 |
| 20260906150743 | 72 | 142 | 0.0 | 4.0 | 0.00 | 0.00 | 0.00 | 62 | 1022.0 |
| 20260906150240 | 71 | 141 | 1.0 | 5.0 | 0.00 | 0.00 | 0.00 | 65 | 1022.0 |
| 20260906145740 | 69 | 148 | 2.0 | 5.0 | 0.00 | 0.00 | 0.00 | 67 | 1022.0 |
| 20260906145239 | 68 | 86 | 3.0 | 6.0 | 0.00 | 0.00 | 0.00 | 67 | 1022.0 |
| 20260906145009 | 67 | 82 | 2.0 | 6.0 | 0.00 | 0.00 | 0.00 | 69 | 1022.0 |
| 20260906144239 | 66 | 79 | 1.0 | 4.0 | 0.00 | 0.00 | 0.00 | 70 | 1022.0 |
| 20260906143740 | 65 | 112 | 0.0 | 2.0 | 0.00 | 0.00 | 0.00 | 73 | 1022.0 |
| 20260906143235 | 64 | 100 | 0.0 | 3.0 | 0.00 | 0.00 | 0.00 | 73 | 1022.0 |
| 20260906142735 | 63 | 152 | 0.0 | 3.0 | 0.00 | 0.00 | 0.00 | 77 | 1022.0 |
| 20260906142235 | 62 | 152 | 0.0 | 3.0 | 0.00 | 0.00 | 0.00 | 77 | 1021.9 |
| 20260906141735 | 62 | 152 | 1.0 | 3.0 | 0.00 | 0.00 | 0.00 | 77 | 1021.9 |
| 20260906141505 | 61 | 96 | 1.0 | 3.0 | 0.00 | 0.00 | 0.00 | 80 | 1021.8 |
| 20260906140732 | 60 | 103 | 0.0 | 3.0 | 0.00 | 0.00 | 0.00 | 82 | 1021.8 |
| 20260906140458 | 59 | 158 | 0.0 | 0.0 | 0.00 | 0.00 | 0.00 | 81 | 1021.7 |
| 20260906135729 | 60 | 157 | 0.0 | 4.0 | 0.00 | 0.00 | 0.00 | 81 | 1021.7 |
| 20260906135229 | 59 | 157 | 1.0 | 4.0 | 0.00 | 0.00 | 0.00 | 81 | 1021.7 |
| 20260906134729 | 59 | 157 | 2.0 | 5.0 | 0.00 | 0.00 | 0.00 | 80 | 1021.7 |
| 20260906134227 | 59 | 105 | 3.0 | 5.0 | 0.00 | 0.00 | 0.00 | 80 | 1021.6 |
| 20260906133727 | 59 | 98 | 2.0 | 6.0 | 0.00 | 0.00 | 0.00 | 80 | 1021.6 |
| 20260906133223 | 59 | 91 | 2.0 | 6.0 | 0.00 | 0.00 | 0.00 | 80 | 1021.6 |
| 20260906132722 | 59 | 103 | 1.0 | 5.0 | 0.00 | 0.00 | 0.00 | 81 | 1021.5 |
| 20260906132221 | 59 | 83 | 2.0 | 5.0 | 0.00 | 0.00 | 0.00 | 80 | 1021.3 |
| 20260906131721 | 59 | 147 | 2.0 | 5.0 | 0.00 | 0.00 | 0.00 | 81 | 1021.2 |
| 20260906131221 | 58 | 91 | 1.0 | 5.0 | 0.00 | 0.00 | 0.00 | 82 | 1021.2 |
| 20260906130722 | 58 | 126 | 1.0 | 4.0 | 0.00 | 0.00 | 0.00 | 83 | 1021.2 |
| 20260906130215 | 58 | 89 | 1.0 | 4.0 | 0.00 | 0.00 | 0.00 | 84 | 1021.2 |
| 20260906125712 | 57 | 89 | 1.0 | 4.0 | 0.00 | 0.00 | 0.00 | 85 | 1021.2 |
| 20260906125211 | 57 | 103 | 0.0 | 3.0 | 0.00 | 0.00 | 0.00 | 85 | 1021.1 |
| 20260906124709 | 57 | 133 | 0.0 | 3.0 | 0.00 | 0.00 | 0.00 | 84 | 1021.2 |
| 20260906124210 | 58 | 133 | 0.0 | 3.0 | 0.00 | 0.00 | 0.00 | 84 | 1021.1 |
| 20260906123703 | 58 | 126 | 0.0 | 5.0 | 0.00 | 0.00 | 0.00 | 83 | 1021.1 |
| 20260906122659 | 59 | 115 | 2.0 | 5.0 | 0.00 | 0.00 | 0.00 | 82 | 1021.2 |
| 20260906122157 | 58 | 93 | 1.0 | 5.0 | 0.00 | 0.00 | 0.00 | 83 | 1021.1 |
| 20260906121658 | 58 | 80 | 0.0 | 4.0 | 0.00 | 0.00 | 0.00 | 83 | 1021.1 |
| 20260906120653 | 58 | 112 | 1.0 | 4.0 | 0.00 | 0.00 | 0.00 | 84 | 1021.1 |
| 20260906120150 | 58 | 98 | 0.0 | 4.0 | 0.00 | 0.00 | 0.00 | 83 | 1021.1 |
| 20260906115652 | 58 | 91 | 0.0 | 1.0 | 0.00 | 0.00 | 0.00 | 82 | 1021.2 |
| 20260906114651 | 59 | 91 | 0.0 | 6.0 | 0.00 | 0.00 | 0.00 | 81 | 1021.1 |
| 20260906114143 | 60 | 91 | 0.0 | 6.0 | 0.00 | 0.00 | 0.00 | 80 | 1021.2 |
| 20260906113641 | 60 | 91 | 2.0 | 7.0 | 0.00 | 0.00 | 0.00 | 79 | 1021.2 |
| 20260906113139 | 60 | 100 | 2.0 | 7.0 | 0.00 | 0.00 | 0.00 | 81 | 1021.1 |
| 20260906112637 | 59 | 103 | 0.0 | 2.0 | 0.00 | 0.00 | 0.00 | 83 | 1021.1 |
| 20260906112138 | 59 | 103 | 0.0 | 4.0 | 0.00 | 0.00 | 0.00 | 83 | 1021.0 |
| 20260906111633 | 59 | 102 | 1.0 | 4.0 | 0.00 | 0.00 | 0.00 | 82 | 1021.1 |
| 20260906111133 | 59 | 114 | 0.0 | 3.0 | 0.00 | 0.00 | 0.00 | 82 | 1021.1 |
| 20260906110633 | 59 | 113 | 1.0 | 4.0 | 0.00 | 0.00 | 0.00 | 82 | 1021.1 |
| 20260906110404 | 59 | 91 | 0.0 | 4.0 | 0.00 | 0.00 | 0.00 | 82 | 1021.1 |
| 20260906105631 | 59 | 130 | 0.0 | 3.0 | 0.00 | 0.00 | 0.00 | 81 | 1021.1 |
| 20260906105131 | 60 | 105 | 1.0 | 4.0 | 0.00 | 0.00 | 0.00 | 81 | 1021.1 |
| 20260906104628 | 60 | 133 | 1.0 | 5.0 | 0.00 | 0.00 | 0.00 | 80 | 1021.1 |
| 20260906104127 | 60 | 72 | 1.0 | 5.0 | 0.00 | 0.00 | 0.00 | 80 | 1021.1 |
| 20260906103629 | 60 | 110 | 2.0 | 6.0 | 0.00 | 0.00 | 0.00 | 79 | 1021.1 |
| 20260906103127 | 60 | 85 | 2.0 | 6.0 | 0.00 | 0.00 | 0.00 | 80 | 1021.1 |
| 20260906102625 | 59 | 88 | 0.0 | 4.0 | 0.00 | 0.00 | 0.00 | 82 | 1021.0 |
| 20260906102125 | 59 | 157 | 0.0 | 1.0 | 0.00 | 0.00 | 0.00 | 81 | 1021.1 |
| 20260906101622 | 59 | 145 | 0.0 | 4.0 | 0.00 | 0.00 | 0.00 | 81 | 1021.1 |
| 20260906101120 | 60 | 143 | 0.0 | 4.0 | 0.00 | 0.00 | 0.00 | 80 | 1021.1 |
| 20260906100621 | 60 | 145 | 1.0 | 4.0 | 0.00 | 0.00 | 0.00 | 79 | 1021.1 |
| 20260906100353 | 60 | 145 | 2.0 | 5.0 | 0.00 | 0.00 | 0.00 | 79 | 1021.0 |
| 20260906095619 | 60 | 64 | 1.0 | 5.0 | 0.00 | 0.00 | 0.00 | 80 | 1021.1 |
| 20260906095120 | 60 | 103 | 0.0 | 3.0 | 0.00 | 0.00 | 0.00 | 80 | 1021.1 |
| 20260906094612 | 60 | 102 | 0.0 | 3.0 | 0.00 | 0.00 | 0.00 | 79 | 1021.1 |
| 20260906094111 | 60 | 102 | 1.0 | 3.0 | 0.00 | 0.00 | 0.00 | 79 | 1021.1 |
| 20260906093609 | 60 | 99 | 1.0 | 4.0 | 0.00 | 0.00 | 0.00 | 79 | 1021.1 |
| 20260906093107 | 60 | 89 | 0.0 | 4.0 | 0.00 | 0.00 | 0.00 | 79 | 1021.1 |
| 20260906092839 | 60 | 115 | 0.0 | 1.0 | 0.00 | 0.00 | 0.00 | 79 | 1021.2 |
| 20260906092102 | 60 | 115 | 0.0 | 2.0 | 0.00 | 0.00 | 0.00 | 78 | 1021.2 |
| 20260906091600 | 61 | 115 | 0.0 | 2.0 | 0.00 | 0.00 | 0.00 | 78 | 1021.2 |
| 20260906091057 | 61 | 115 | 1.0 | 3.0 | 0.00 | 0.00 | 0.00 | 77 | 1021.2 |
| 20260906090555 | 62 | 110 | 2.0 | 4.0 | 0.00 | 0.00 | 0.00 | 76 | 1021.1 |
| 20260906090056 | 62 | 60 | 2.0 | 5.0 | 0.00 | 0.00 | 0.00 | 75 | 1021.1 |
| 20260906085551 | 62 | 91 | 2.0 | 5.0 | 0.00 | 0.00 | 0.00 | 74 | 1021.2 |
| 20260906085051 | 62 | 95 | 2.0 | 6.0 | 0.00 | 0.00 | 0.00 | 75 | 1021.3 |
| 20260906084551 | 62 | 82 | 2.0 | 6.0 | 0.00 | 0.00 | 0.00 | 75 | 1021.3 |
| 20260906084051 | 62 | 86 | 2.0 | 5.0 | 0.00 | 0.00 | 0.00 | 75 | 1021.3 |
| 20260906083549 | 61 | 103 | 2.0 | 5.0 | 0.00 | 0.00 | 0.00 | 76 | 1021.5 |
| 20260906083049 | 61 | 97 | 1.0 | 4.0 | 0.00 | 0.00 | 0.00 | 78 | 1021.6 |
| 20260906082544 | 60 | 93 | 0.0 | 4.0 | 0.00 | 0.00 | 0.00 | 79 | 1021.6 |
| 20260906082039 | 60 | 94 | 0.0 | 2.0 | 0.00 | 0.00 | 0.00 | 78 | 1021.7 |
| 20260906081539 | 61 | 127 | 0.0 | 2.0 | 0.00 | 0.00 | 0.00 | 77 | 1021.7 |
| 20260906081037 | 61 | 127 | 0.0 | 2.0 | 0.00 | 0.00 | 0.00 | 76 | 1021.7 |
| 20260906080537 | 62 | 100 | 1.0 | 3.0 | 0.00 | 0.00 | 0.00 | 75 | 1021.7 |
| 20260906080034 | 63 | 103 | 1.0 | 6.0 | 0.00 | 0.00 | 0.00 | 73 | 1021.8 |
| 20260906075033 | 63 | 100 | 2.0 | 7.0 | 0.00 | 0.00 | 0.00 | 73 | 1021.8 |
| 20260906074533 | 63 | 40 | 2.0 | 7.0 | 0.00 | 0.00 | 0.00 | 74 | 1021.8 |
| 20260906074302 | 62 | 34 | 3.0 | 7.0 | 0.00 | 0.00 | 0.00 | 74 | 1021.8 |
| 20260906073531 | 62 | 73 | 3.0 | 6.0 | 0.00 | 0.00 | 0.00 | 76 | 1021.8 |
| 20260906073028 | 61 | 69 | 1.0 | 4.0 | 0.00 | 0.00 | 0.00 | 79 | 1021.8 |
| 20260906072029 | 61 | 53 | 0.0 | 1.0 | 0.00 | 0.00 | 0.00 | 79 | 1021.9 |
| 20260906071527 | 61 | 53 | 0.0 | 3.0 | 0.00 | 0.00 | 0.00 | 78 | 1022.0 |
| 20260906071025 | 62 | 53 | 0.0 | 3.0 | 0.00 | 0.00 | 0.00 | 77 | 1022.2 |
| 20260906070525 | 62 | 53 | 1.0 | 5.0 | 0.00 | 0.00 | 0.00 | 76 | 1022.0 |
| 20260906070020 | 62 | 53 | 2.0 | 6.0 | 0.00 | 0.00 | 0.00 | 76 | 1022.0 |
| 20260906065518 | 62 | 63 | 2.0 | 6.0 | 0.00 | 0.00 | 0.00 | 77 | 1022.0 |
| 20260906065017 | 61 | 72 | 0.0 | 4.0 | 0.00 | 0.00 | 0.00 | 79 | 1022.0 |
| 20260906064519 | 60 | 114 | 0.0 | 1.0 | 0.00 | 0.00 | 0.00 | 81 | 1022.0 |
| 20260906064017 | 60 | 114 | 0.0 | 0.0 | 0.00 | 0.00 | 0.00 | 81 | 1022.0 |
| 20260906063519 | 61 | 114 | 0.0 | 0.0 | 0.00 | 0.00 | 0.00 | 80 | 1021.9 |
| 20260906063010 | 61 | 113 | 0.0 | 0.0 | 0.00 | 0.00 | 0.00 | 79 | 1022.0 |
| 20260906062509 | 61 | 114 | 0.0 | 0.0 | 0.00 | 0.00 | 0.00 | 78 | 1021.9 |
| 20260906062007 | 62 | 114 | 0.0 | 0.0 | 0.00 | 0.00 | 0.00 | 77 | 1022.0 |
| 20260906061505 | 62 | 113 | 0.0 | 0.0 | 0.00 | 0.00 | 0.00 | 77 | 1022.0 |
| 20260906061006 | 62 | 113 | 0.0 | 0.0 | 0.00 | 0.00 | 0.00 | 76 | 1021.9 |
| 20260906060459 | 63 | 114 | 0.0 | 1.0 | 0.00 | 0.00 | 0.00 | 76 | 1021.9 |
| 20260906055957 | 63 | 114 | 0.0 | 1.0 | 0.00 | 0.00 | 0.00 | 75 | 1021.9 |
| 20260906055455 | 63 | 89 | 0.0 | 1.0 | 0.00 | 0.00 | 0.00 | 75 | 1021.9 |
| 20260906054953 | 63 | 17 | 0.0 | 1.0 | 0.00 | 0.00 | 0.00 | 74 | 1021.9 |
| 20260906054455 | 64 | 89 | 0.0 | 3.0 | 0.00 | 0.00 | 0.00 | 73 | 1021.9 |
| 20260906053951 | 64 | 89 | 0.0 | 3.0 | 0.00 | 0.00 | 0.00 | 73 | 1021.8 |
| 20260906053449 | 64 | 73 | 0.0 | 3.0 | 0.00 | 0.00 | 0.00 | 72 | 1021.9 |
| 20260906052947 | 63 | 34 | 0.0 | 3.0 | 0.00 | 0.00 | 0.00 | 74 | 1021.9 |
| 20260906052448 | 63 | 142 | 0.0 | 4.0 | 0.00 | 0.00 | 0.00 | 74 | 1022.0 |
| 20260906051947 | 64 | 141 | 0.0 | 4.0 | 0.00 | 0.00 | 0.00 | 73 | 1022.0 |
| 20260906051719 | 64 | 141 | 0.0 | 4.0 | 0.00 | 0.00 | 0.00 | 72 | 1022.0 |
| 20260906050945 | 65 | 76 | 0.0 | 4.0 | 0.00 | 0.00 | 0.00 | 71 | 1022.2 |
| 20260906050444 | 64 | 44 | 0.0 | 1.0 | 0.00 | 0.00 | 0.00 | 72 | 1022.3 |
| 20260906045944 | 65 | 119 | 0.0 | 1.0 | 0.00 | 0.00 | 0.00 | 71 | 1022.2 |
| 20260906045444 | 65 | 119 | 0.0 | 3.0 | 0.00 | 0.00 | 0.00 | 70 | 1022.2 |
| 20260906045211 | 66 | 100 | 0.0 | 3.0 | 0.00 | 0.00 | 0.00 | 68 | 1022.3 |
| 20260906044441 | 66 | 91 | 0.0 | 3.0 | 0.00 | 0.00 | 0.00 | 68 | 1022.3 |
| 20260906043935 | 66 | 72 | 0.0 | 3.0 | 0.00 | 0.00 | 0.00 | 68 | 1022.3 |
| 20260906043434 | 66 | 76 | 0.0 | 3.0 | 0.00 | 0.00 | 0.00 | 68 | 1022.3 |
| 20260906042933 | 66 | 79 | 0.0 | 4.0 | 0.00 | 0.00 | 0.00 | 68 | 1022.3 |
| 20260906042435 | 66 | 74 | 1.0 | 4.0 | 0.00 | 0.00 | 0.00 | 68 | 1022.3 |
| 20260906042206 | 66 | 45 | 1.0 | 5.0 | 0.00 | 0.00 | 0.00 | 68 | 1022.4 |
| 20260906041436 | 66 | 68 | 1.0 | 5.0 | 0.00 | 0.00 | 0.00 | 67 | 1022.4 |
| 20260906040927 | 66 | 84 | 0.0 | 7.0 | 0.00 | 0.00 | 0.00 | 67 | 1022.4 |
| 20260906040429 | 66 | 94 | 1.0 | 7.0 | 0.00 | 0.00 | 0.00 | 67 | 1022.3 |
| 20260906040201 | 66 | 67 | 2.0 | 7.0 | 0.00 | 0.00 | 0.00 | 67 | 1022.3 |
| 20260906035429 | 66 | 38 | 1.0 | 7.0 | 0.00 | 0.00 | 0.00 | 67 | 1022.3 |
| 20260906034929 | 66 | 43 | 0.0 | 5.0 | 0.00 | 0.00 | 0.00 | 67 | 1022.4 |
| 20260906034429 | 66 | 93 | 0.0 | 6.0 | 0.00 | 0.00 | 0.00 | 68 | 1022.3 |
| 20260906033924 | 66 | 25 | 0.0 | 6.0 | 0.00 | 0.00 | 0.00 | 69 | 1022.2 |
| 20260906033656 | 64 | 73 | 0.0 | 4.0 | 0.00 | 0.00 | 0.00 | 72 | 1022.2 |
| 20260906032923 | 63 | 253 | 0.0 | 0.0 | 0.00 | 0.00 | 0.00 | 74 | 1022.0 |
| 20260906032423 | 63 | 254 | 0.0 | 0.0 | 0.00 | 0.00 | 0.00 | 74 | 1022.0 |
| 20260906031923 | 64 | 254 | 0.0 | 0.0 | 0.00 | 0.00 | 0.00 | 74 | 1021.9 |
| 20260906031423 | 64 | 253 | 0.0 | 0.0 | 0.00 | 0.00 | 0.00 | 73 | 1021.8 |
| 20260906031150 | 64 | 254 | 0.0 | 0.0 | 0.00 | 0.00 | 0.00 | 73 | 1021.7 |
| 20260906030420 | 64 | 254 | 0.0 | 0.0 | 0.00 | 0.00 | 0.00 | 73 | 1021.7 |
| 20260906025915 | 65 | 254 | 0.0 | 0.0 | 0.00 | 0.00 | 0.00 | 73 | 1021.7 |
| 20260906025417 | 65 | 254 | 0.0 | 0.0 | 0.00 | 0.00 | 0.00 | 72 | 1021.7 |
| 20260906024917 | 65 | 253 | 0.0 | 0.0 | 0.00 | 0.00 | 0.00 | 71 | 1021.7 |
| 20260906024418 | 66 | 253 | 0.0 | 0.0 | 0.00 | 0.00 | 0.00 | 69 | 1021.7 |
| 20260906023911 | 66 | 253 | 0.0 | 0.0 | 0.00 | 0.00 | 0.00 | 69 | 1021.6 |
| 20260906023410 | 67 | 253 | 0.0 | 0.0 | 0.00 | 0.00 | 0.00 | 68 | 1021.5 |
| 20260906022907 | 67 | 254 | 0.0 | 0.0 | 0.00 | 0.00 | 0.00 | 65 | 1021.3 |
| 20260906022405 | 67 | 253 | 0.0 | 0.0 | 0.00 | 0.00 | 0.00 | 64 | 1021.3 |
| 20260906021906 | 68 | 253 | 0.0 | 0.0 | 0.00 | 0.00 | 0.00 | 63 | 1021.2 |
| 20260906021402 | 69 | 254 | 0.0 | 0.0 | 0.00 | 0.00 | 0.00 | 62 | 1021.3 |
| 20260906020901 | 69 | 254 | 0.0 | 0.0 | 0.00 | 0.00 | 0.00 | 60 | 1021.3 |
| 20260906020401 | 70 | 254 | 0.0 | 0.0 | 0.00 | 0.00 | 0.00 | 60 | 1021.3 |
| 20260906015902 | 70 | 254 | 0.0 | 0.0 | 0.00 | 0.00 | 0.00 | 58 | 1021.5 |
| 20260906015400 | 71 | 254 | 0.0 | 0.0 | 0.00 | 0.00 | 0.00 | 58 | 1021.5 |
| 20260906015129 | 71 | 254 | 0.0 | 0.0 | 0.00 | 0.00 | 0.00 | 58 | 1021.5 |
| 20260906014353 | 72 | 254 | 0.0 | 0.0 | 0.00 | 0.00 | 0.00 | 56 | 1021.5 |
| 20260906013852 | 72 | 254 | 0.0 | 1.0 | 0.00 | 0.00 | 0.00 | 56 | 1021.6 |
| 20260906013124 | 73 | 254 | 0.0 | 1.0 | 0.00 | 0.00 | 0.00 | 53 | 1021.6 |
| 20260906012625 | 74 | 254 | 0.0 | 2.0 | 0.00 | 0.00 | 0.00 | 52 | 1021.7 |
| 20260906011853 | 74 | 254 | 0.0 | 2.0 | 0.00 | 0.00 | 0.00 | 52 | 1021.7 |
| 20260906011351 | 74 | 254 | 0.0 | 4.0 | 0.00 | 0.00 | 0.00 | 51 | 1021.7 |
| 20260906010849 | 75 | 254 | 0.0 | 4.0 | 0.00 | 0.00 | 0.00 | 50 | 1021.6 |
| 20260906010349 | 75 | 254 | 0.0 | 5.0 | 0.00 | 0.00 | 0.00 | 50 | 1021.7 |
| 20260906005850 | 75 | 254 | 1.0 | 5.0 | 0.00 | 0.00 | 0.00 | 49 | 1021.7 |
| 20260906005619 | 76 | 255 | 1.0 | 7.0 | 0.00 | 0.00 | 0.00 | 49 | 1021.7 |
| 20260906004848 | 76 | 270 | 1.0 | 7.0 | 0.00 | 0.00 | 0.00 | 49 | 1021.7 |
| 20260906004613 | 76 | 330 | 2.0 | 8.0 | 0.00 | 0.00 | 0.00 | 48 | 1021.5 |
| 20260906003840 | 77 | 259 | 2.0 | 8.0 | 0.00 | 0.00 | 0.00 | 48 | 1021.6 |
| 20260906003341 | 77 | 252 | 3.0 | 6.0 | 0.00 | 0.00 | 0.00 | 47 | 1021.6 |
| 20260906002841 | 78 | 280 | 2.0 | 6.0 | 0.00 | 0.00 | 0.00 | 45 | 1021.6 |
| 20260906002341 | 79 | 257 | 2.0 | 8.0 | 0.00 | 0.00 | 0.00 | 45 | 1021.6 |
| 20260906001841 | 79 | 234 | 2.0 | 8.0 | 0.00 | 0.00 | 0.00 | 44 | 1021.3 |
| 20260906001335 | 79 | 261 | 3.0 | 8.0 | 0.00 | 0.00 | 0.00 | 45 | 1021.3 |
| 20260906000835 | 79 | 242 | 4.0 | 9.0 | 0.00 | 0.00 | 0.00 | 44 | 1021.3 |
| 20260906000608 | 79 | 268 | 3.0 | 9.0 | 0.00 | 0.00 | 0.00 | 43 | 1021.3 |
| 20260905235835 | 79 | 219 | 2.0 | 6.0 | 0.00 | 0.00 | 0.00 | 44 | 1021.3 |
| 20260905235335 | 79 | 268 | 1.0 | 6.0 | 0.00 | 0.00 | 0.00 | 43 | 1021.3 |
| 20260905234835 | 80 | 228 | 2.0 | 6.0 | 0.00 | 0.00 | 0.00 | 43 | 1021.3 |
| 20260905234328 | 80 | 181 | 2.0 | 7.0 | 0.00 | 0.00 | 0.00 | 41 | 1021.3 |
| 20260905233829 | 81 | 262 | 2.0 | 7.0 | 0.00 | 0.00 | 0.00 | 41 | 1021.3 |
| 20260905233330 | 82 | 252 | 2.0 | 7.0 | 0.00 | 0.00 | 0.00 | 40 | 1021.2 |
| 20260905232829 | 82 | 258 | 2.0 | 7.0 | 0.00 | 0.00 | 0.00 | 41 | 1021.3 |
| 20260905232330 | 81 | 257 | 2.0 | 9.0 | 0.00 | 0.00 | 0.00 | 41 | 1021.3 |
| 20260905231830 | 81 | 192 | 2.0 | 9.0 | 0.00 | 0.00 | 0.00 | 41 | 1021.5 |
| 20260905231554 | 81 | 269 | 3.0 | 10.0 | 0.00 | 0.00 | 0.00 | 41 | 1021.5 |
| 20260905230822 | 81 | 289 | 2.0 | 10.0 | 0.00 | 0.00 | 0.00 | 40 | 1021.5 |
| 20260905230323 | 82 | 202 | 2.0 | 8.0 | 0.00 | 0.00 | 0.00 | 40 | 1021.3 |
| 20260905225823 | 82 | 205 | 2.0 | 8.0 | 0.00 | 0.00 | 0.00 | 40 | 1021.5 |
| 20260905225322 | 82 | 296 | 2.0 | 8.0 | 0.00 | 0.00 | 0.00 | 38 | 1021.5 |
| 20260905224820 | 82 | 239 | 2.0 | 7.0 | 0.00 | 0.00 | 0.00 | 40 | 1021.5 |
| 20260905224317 | 82 | 226 | 3.0 | 8.0 | 0.00 | 0.00 | 0.00 | 40 | 1021.5 |
| 20260905224047 | 81 | 197 | 3.0 | 8.0 | 0.00 | 0.00 | 0.00 | 40 | 1021.6 |
| 20260905223315 | 82 | 272 | 2.0 | 8.0 | 0.00 | 0.00 | 0.00 | 39 | 1021.6 |
| 20260905222816 | 82 | 248 | 2.0 | 9.0 | 0.00 | 0.00 | 0.00 | 40 | 1021.6 |
| 20260905222315 | 81 | 185 | 3.0 | 9.0 | 0.00 | 0.00 | 0.00 | 41 | 1021.6 |
| 20260905221815 | 80 | 251 | 3.0 | 9.0 | 0.00 | 0.00 | 0.00 | 41 | 1021.7 |
| 20260905221312 | 81 | 250 | 2.0 | 9.0 | 0.00 | 0.00 | 0.00 | 39 | 1021.7 |
| 20260905220812 | 82 | 264 | 2.0 | 9.0 | 0.00 | 0.00 | 0.00 | 40 | 1021.8 |
| 20260905220313 | 82 | 247 | 2.0 | 10.0 | 0.00 | 0.00 | 0.00 | 38 | 1021.8 |
| 20260905215811 | 83 | 273 | 1.0 | 10.0 | 0.00 | 0.00 | 0.00 | 37 | 1021.8 |
| 20260905215310 | 83 | 227 | 3.0 | 9.0 | 0.00 | 0.00 | 0.00 | 40 | 1021.9 |
| 20260905214811 | 82 | 269 | 3.0 | 9.0 | 0.00 | 0.00 | 0.00 | 40 | 1021.8 |
| 20260905214307 | 82 | 245 | 2.0 | 8.0 | 0.00 | 0.00 | 0.00 | 40 | 1021.9 |
| 20260905213805 | 81 | 240 | 3.0 | 8.0 | 0.00 | 0.00 | 0.00 | 40 | 1022.0 |
| 20260905213305 | 82 | 262 | 3.0 | 9.0 | 0.00 | 0.00 | 0.00 | 40 | 1022.0 |
| 20260905212805 | 81 | 230 | 2.0 | 9.0 | 0.00 | 0.00 | 0.00 | 43 | 1022.0 |